Simultaneous Nadir Overpasses (SNOs) Predictions

Prediction of SNOs between AQUA and TERRA Satellite Orbit:

Table of predicted SNOs for the next 14.0 days since TLE Epoch: 10/13/2022
Index Date (AQUA) Time (AQUA) Lat,Lon (AQUA) SZA (AQUA ) Date (TERRA) Time (TERRA) Lat,Lon (TERRA) SZA (TERRA ) Distance(km) Time Diff (sec)
1 10/20/2022 18:17:02 -72.81, 83.26 96.76 10/20/2022 18:18:07 -72.74, 86.23 96.78 97.86 65
2 10/20/2022 19:06:28 72.76,-109.01 83.21 10/20/2022 19:07:33 72.67,-106.25 83.17 91.59 65
3 10/20/2022 19:55:52 -72.72, 58.72 96.82 10/20/2022 19:56:58 -72.65, 61.35 96.85 87.47 66
4 10/20/2022 20:45:18 72.67,-133.55 83.15 10/20/2022 20:46:24 72.58,-131.13 83.10 81.18 66
5 10/20/2022 21:34:42 -72.63, 34.18 96.89 10/20/2022 21:35:48 -72.61, 36.58 96.86 79.88 66
6 10/20/2022 22:24:08 72.59,-158.10 83.08 10/20/2022 22:25:14 72.55,-155.90 83.09 73.35 66
7 10/20/2022 23:13:31 -72.54, 9.63 96.95 10/20/2022 23:14:38 -72.53, 11.71 96.93 69.45 67
8 10/21/2022 00:02:57 72.50, 177.36 83.02 10/21/2022 00:04:04 72.46, 179.23 83.02 62.89 67
9 10/21/2022 00:52:21 -72.45, -14.92 97.01 10/21/2022 00:53:29 -72.44, -13.16 97.00 59.02 68
10 10/21/2022 01:41:47 72.41, 152.81 82.96 10/21/2022 01:42:55 72.37, 154.36 82.95 52.43 68
11 10/21/2022 02:31:11 -72.36, -39.47 97.08 10/21/2022 02:32:20 -72.35, -38.03 97.07 48.59 69
12 10/21/2022 03:20:37 72.32, 128.26 82.89 10/21/2022 03:21:46 72.28, 129.49 82.88 41.99 69
13 10/21/2022 04:10:02 -72.33, -64.12 97.09 10/21/2022 04:11:11 -72.26, -62.89 97.13 42.09 69
14 10/21/2022 04:59:27 72.23, 103.71 82.83 10/21/2022 05:00:37 72.19, 104.63 82.81 31.58 70
15 10/21/2022 05:48:52 -72.24, -88.67 97.15 10/21/2022 05:50:02 -72.17, -87.76 97.20 31.90 70
16 10/21/2022 06:38:17 72.14, 79.15 82.77 10/21/2022 06:39:28 72.10, 79.76 82.74 21.26 71
17 10/21/2022 07:27:42 -72.15,-113.22 97.21 10/21/2022 07:28:53 -72.08,-112.62 97.27 21.94 71
18 10/21/2022 08:17:08 72.10, 54.50 82.76 10/21/2022 08:18:19 72.01, 54.90 82.67 17.14 71
19 10/21/2022 09:06:32 -72.06,-137.78 97.28 10/21/2022 09:07:44 -71.99,-137.48 97.34 12.77 72
20 10/21/2022 09:55:58 72.01, 29.95 82.69 10/21/2022 09:57:09 71.97, 30.13 82.66 7.74 71
21 10/21/2022 10:45:22 -71.97,-162.33 97.34 10/21/2022 10:46:34 -71.95,-162.25 97.35 3.40 72
22 10/21/2022 11:34:48 71.92, 5.39 82.63 10/21/2022 11:35:59 71.93, 5.36 82.65 1.71 71
23 10/21/2022 12:24:13 -71.94, 173.02 97.35 10/21/2022 12:25:24 -71.92, 172.98 97.36 2.30 71
24 10/21/2022 13:13:40 71.94, -19.35 82.67 10/21/2022 13:14:48 71.95, -19.31 82.69 1.88 68
25 10/21/2022 14:03:05 -71.95, 148.27 97.31 10/21/2022 14:04:13 -71.94, 148.30 97.32 2.26 68
26 10/21/2022 14:52:31 71.90, -44.00 82.66 10/21/2022 14:53:38 71.91, -44.08 82.67 3.00 67
27 10/21/2022 15:41:56 -71.92, 123.62 97.32 10/21/2022 15:43:03 -71.90, 123.54 97.33 3.46 67
28 10/21/2022 16:31:23 71.92, -68.75 82.70 10/21/2022 16:32:27 71.93, -68.76 82.72 1.28 64
29 10/21/2022 17:20:48 -71.93, 98.87 97.28 10/21/2022 17:21:52 -71.92, 98.86 97.29 2.01 64
30 10/21/2022 18:10:15 71.94, -93.50 82.74 10/21/2022 18:11:16 71.95, -93.44 82.76 2.41 61
31 10/21/2022 18:59:40 -71.95, 74.13 97.24 10/21/2022 19:00:41 -71.93, 74.18 97.25 2.77 61
32 10/21/2022 19:49:06 71.90,-118.15 82.73 10/21/2022 19:50:06 71.91,-118.20 82.75 2.27 60
33 10/21/2022 20:38:31 -71.92, 49.48 97.25 10/21/2022 20:39:31 -71.90, 49.42 97.26 2.88 60
34 10/21/2022 21:27:58 71.92,-142.89 82.77 10/21/2022 21:28:55 71.93,-142.88 82.79 1.17 57
35 10/21/2022 22:17:23 -71.93, 24.73 97.21 10/21/2022 22:18:20 -71.91, 24.74 97.22 2.06 57
36 10/21/2022 23:06:50 71.94,-167.64 82.82 10/21/2022 23:07:44 71.95,-167.56 82.83 3.02 54
37 10/21/2022 23:56:15 -71.95, -0.01 97.16 10/21/2022 23:57:09 -71.93, 0.06 97.18 3.42 54
38 10/22/2022 00:45:41 71.90, 167.71 82.81 10/22/2022 00:46:34 71.91, 167.67 82.82 1.52 53
39 10/22/2022 01:35:06 -71.92, -24.67 97.18 10/22/2022 01:35:59 -71.90, -24.70 97.19 2.47 53
40 10/22/2022 02:24:33 71.92, 142.96 82.85 10/22/2022 02:25:23 71.93, 143.00 82.86 1.49 50
41 10/22/2022 03:13:58 -71.93, -49.41 97.13 10/22/2022 03:14:48 -71.91, -49.38 97.15 2.43 50
42 10/22/2022 04:03:24 71.88, 118.31 82.84 10/22/2022 04:04:13 71.89, 118.23 82.85 2.93 49
43 10/22/2022 04:52:49 -71.90, -74.06 97.14 10/22/2022 04:53:38 -71.88, -74.15 97.16 3.64 49
44 10/22/2022 05:42:16 71.90, 93.56 82.88 10/22/2022 05:43:02 71.91, 93.55 82.89 0.82 46
45 10/22/2022 06:31:41 -71.91, -98.81 97.10 10/22/2022 06:32:27 -71.89, -98.82 97.12 2.33 46
46 10/22/2022 07:21:08 71.92, 68.82 82.92 10/22/2022 07:21:51 71.93, 68.88 82.93 2.07 43
47 10/22/2022 08:10:33 -71.93,-123.56 97.06 10/22/2022 08:11:16 -71.91,-123.50 97.08 3.03 43
48 10/22/2022 08:59:59 71.88, 44.17 82.91 10/22/2022 09:00:41 71.89, 44.11 82.92 2.11 42
49 10/22/2022 09:49:24 -71.90,-148.21 97.07 10/22/2022 09:50:06 -71.88,-148.27 97.09 3.19 42
50 10/22/2022 10:38:51 71.90, 19.42 82.95 10/22/2022 10:39:30 71.91, 19.43 82.96 0.53 39
51 10/22/2022 11:28:16 -71.92,-172.96 97.03 10/22/2022 11:28:55 -71.89,-172.95 97.05 2.52 39
52 10/22/2022 12:17:43 71.92, -5.33 82.99 10/22/2022 12:18:19 71.92, -5.25 83.00 2.78 36
53 10/22/2022 13:07:07 -71.88, 162.39 97.04 10/22/2022 13:07:44 -71.91, 162.38 97.01 3.42 37
54 10/22/2022 13:56:34 71.89, -29.98 82.98 10/22/2022 13:57:09 71.89, -30.02 82.99 1.27 35
55 10/22/2022 14:45:59 -71.90, 137.65 97.00 10/22/2022 14:46:34 -71.87, 137.61 97.02 2.95 35
56 10/22/2022 15:35:26 71.90, -54.73 83.02 10/22/2022 15:35:58 71.90, -54.69 83.03 1.15 32
57 10/22/2022 16:24:51 -71.92, 112.90 96.96 10/22/2022 16:25:23 -71.89, 112.93 96.98 3.00 32
58 10/22/2022 17:14:17 71.87, -79.38 83.01 10/22/2022 17:14:48 71.87, -79.46 83.01 2.87 31
59 10/22/2022 18:03:42 -71.88, 88.25 96.97 10/22/2022 18:04:12 -71.91, 88.26 96.94 3.12 30
60 10/22/2022 18:53:09 71.89,-104.12 83.06 10/22/2022 18:53:37 71.88,-104.14 83.06 0.52 28
61 10/22/2022 19:42:34 -71.90, 63.50 96.93 10/22/2022 19:43:02 -71.87, 63.49 96.95 3.01 28
62 10/22/2022 20:32:01 71.90,-128.87 83.10 10/22/2022 20:32:26 71.90,-128.81 83.10 1.99 25
63 10/22/2022 21:21:25 -71.86, 38.85 96.94 10/22/2022 21:21:51 -71.89, 38.81 96.91 3.12 26
64 10/22/2022 22:10:52 71.87,-153.52 83.09 10/22/2022 22:11:16 71.86,-153.58 83.08 2.13 24
65 10/22/2022 23:00:17 -71.88, 14.10 96.89 10/22/2022 23:00:40 -71.91, 14.14 96.87 3.00 23
66 10/22/2022 23:49:44 71.89,-178.27 83.13 10/22/2022 23:50:05 71.88,-178.26 83.12 0.78 21
67 10/23/2022 00:39:09 -71.90, -10.65 96.85 10/23/2022 00:39:30 -71.87, -10.63 96.88 3.37 21
68 10/23/2022 01:28:36 71.91, 156.98 83.17 10/23/2022 01:28:54 71.90, 157.06 83.17 2.89 18
69 10/23/2022 02:18:00 -71.86, -35.30 96.86 10/23/2022 02:18:19 -71.89, -35.31 96.84 2.52 19
70 10/23/2022 03:07:26 71.87, 132.33 83.16 10/23/2022 03:07:43 71.86, 132.29 83.15 1.62 17
71 10/23/2022 03:56:51 -71.88, -60.05 96.82 10/23/2022 03:57:07 -71.90, -59.99 96.80 3.12 16
72 10/23/2022 04:46:18 71.89, 107.58 83.20 10/23/2022 04:46:32 71.88, 107.62 83.19 1.68 14
73 10/23/2022 05:35:42 -71.85, -84.70 96.83 10/23/2022 05:35:57 -71.87, -84.75 96.81 2.94 15
74 10/23/2022 06:25:09 71.85, 82.93 83.19 10/23/2022 06:25:22 71.84, 82.85 83.18 3.16 13
75 10/23/2022 07:14:34 -71.87,-109.45 96.79 10/23/2022 07:14:46 -71.88,-109.43 96.77 2.11 12
76 10/23/2022 08:04:01 71.87, 58.18 83.24 10/23/2022 08:04:11 71.86, 58.17 83.22 1.63 10
77 10/23/2022 08:53:26 -71.88,-134.19 96.75 10/23/2022 08:53:35 -71.90,-134.11 96.73 3.47 9
78 10/23/2022 09:42:53 71.89, 33.44 83.28 10/23/2022 09:43:00 71.87, 33.49 83.26 2.67 7
79 10/23/2022 10:32:17 -71.85,-158.85 96.76 10/23/2022 10:32:25 -71.86,-158.88 96.74 2.04 8
80 10/23/2022 11:21:44 71.86, 8.78 83.27 10/23/2022 11:21:50 71.84, 8.72 83.25 2.81 6
81 10/23/2022 12:11:09 -71.87, 176.41 96.71 10/23/2022 12:11:14 -71.88, 176.45 96.70 2.07 5
82 10/23/2022 13:00:36 71.87, -15.97 83.31 10/23/2022 13:00:39 71.85, -15.95 83.29 2.22 3
83 10/23/2022 13:50:00 -71.83, 151.75 96.72 10/23/2022 13:50:04 -71.84, 151.68 96.71 2.97 4
84 10/23/2022 14:39:27 71.84, -40.62 83.30 10/23/2022 14:39:28 71.87, -40.63 83.33 3.62 1
85 10/23/2022 15:28:52 -71.85, 127.01 96.68 10/23/2022 15:28:53 -71.86, 127.00 96.67 1.23 1
86 10/23/2022 16:18:19 71.86, -65.37 83.34 10/23/2022 16:18:18 71.83, -65.40 83.32 2.86 1
87 10/23/2022 17:07:44 -71.87, 102.26 96.64 10/23/2022 17:07:42 -71.88, 102.32 96.63 2.45 2
88 10/23/2022 17:57:11 71.88, -90.11 83.38 10/23/2022 17:57:07 71.85, -90.08 83.36 3.10 4
89 10/23/2022 18:46:35 -71.83, 77.61 96.65 10/23/2022 18:46:32 -71.84, 77.56 96.64 1.93 3
90 10/23/2022 19:36:02 71.84,-114.77 83.37 10/23/2022 19:35:56 71.87,-114.75 83.40 2.97 6
91 10/23/2022 20:25:27 -71.85, 52.86 96.61 10/23/2022 20:25:21 -71.86, 52.88 96.60 0.93 6
92 10/23/2022 21:14:54 71.86,-139.51 83.42 10/23/2022 21:14:46 71.83,-139.52 83.39 3.32 8
93 10/23/2022 22:04:19 -71.87, 28.11 96.57 10/23/2022 22:04:10 -71.88, 28.20 96.56 3.13 9
94 10/23/2022 22:53:45 71.83,-164.17 83.41 10/23/2022 22:53:35 71.85,-164.20 83.43 2.68 10
95 10/23/2022 23:43:10 -71.84, 3.46 96.58 10/23/2022 23:43:00 -71.84, 3.43 96.57 0.88 10
96 10/24/2022 00:32:37 71.84, 171.08 83.45 10/24/2022 00:32:24 71.86, 171.12 83.47 2.58 13
97 10/24/2022 01:22:02 -71.86, -21.29 96.53 10/24/2022 01:21:49 -71.86, -21.24 96.53 1.57 13
98 10/24/2022 02:11:28 71.81, 146.43 83.44 10/24/2022 02:11:14 71.83, 146.35 83.45 3.28 14
99 10/24/2022 03:00:53 -71.82, -45.94 96.54 10/24/2022 03:00:39 -71.82, -46.01 96.55 2.39 14
100 10/24/2022 03:50:20 71.83, 121.68 83.48 10/24/2022 03:50:03 71.84, 121.68 83.49 1.70 17
101 10/24/2022 04:39:45 -71.84, -70.69 96.50 10/24/2022 04:39:28 -71.84, -70.69 96.51 0.45 17
102 10/24/2022 05:29:12 71.85, 96.93 83.52 10/24/2022 05:28:52 71.86, 97.00 83.54 2.62 20
103 10/24/2022 06:18:37 -71.86, -95.44 96.46 10/24/2022 06:18:17 -71.85, -95.37 96.46 2.57 20
104 10/24/2022 07:08:03 71.81, 72.28 83.51 10/24/2022 07:07:42 71.82, 72.23 83.52 2.11 21
105 10/24/2022 07:57:28 -71.82,-120.09 96.47 10/24/2022 07:57:07 -71.82,-120.14 96.48 1.74 21
106 10/24/2022 08:46:55 71.83, 47.53 83.56 10/24/2022 08:46:31 71.84, 47.55 83.56 1.08 24
107 10/24/2022 09:36:20 -71.84,-144.84 96.43 10/24/2022 09:35:56 -71.83,-144.81 96.44 1.52 24
108 10/24/2022 10:25:47 71.85, 22.78 83.60 10/24/2022 10:25:20 71.86, 22.87 83.60 3.14 27
109 10/24/2022 11:15:11 -71.81,-169.50 96.44 10/24/2022 11:14:46 -71.80,-169.58 96.45 3.32 25
110 10/24/2022 12:04:38 71.82, -1.87 83.59 10/24/2022 12:04:10 71.82, -1.90 83.59 0.93 28
111 10/24/2022 12:54:03 -71.83, 165.76 96.39 10/24/2022 12:53:35 -71.81, 165.74 96.41 1.78 28
112 10/24/2022 13:43:30 71.84, -26.62 83.63 10/24/2022 13:42:59 71.84, -26.57 83.63 1.55 31
113 10/24/2022 14:32:55 -71.85, 141.01 96.35 10/24/2022 14:32:24 -71.83, 141.06 96.37 2.71 31
114 10/24/2022 15:22:21 71.80, -51.27 83.62 10/24/2022 15:21:49 71.80, -51.34 83.61 2.45 32
115 10/24/2022 16:11:46 -71.81, 116.35 96.36 10/24/2022 16:11:14 -71.79, 116.29 96.38 3.04 32
116 10/24/2022 17:01:13 71.82, -76.02 83.66 10/24/2022 17:00:38 71.81, -76.02 83.66 0.63 35
117 10/24/2022 17:50:38 -71.83, 91.61 96.32 10/24/2022 17:50:03 -71.81, 91.62 96.34 2.53 35
118 10/24/2022 18:40:05 71.84,-100.77 83.71 10/24/2022 18:39:27 71.83,-100.70 83.70 2.62 38
119 10/24/2022 19:29:29 -71.80, 66.95 96.33 10/24/2022 19:28:52 -71.83, 66.94 96.30 3.21 37
120 10/24/2022 20:18:56 71.81,-125.42 83.70 10/24/2022 20:18:17 71.79,-125.47 83.68 1.99 39
121 10/24/2022 21:08:21 -71.82, 42.20 96.29 10/24/2022 21:07:42 -71.79, 42.17 96.32 3.28 39
122 10/24/2022 21:57:48 71.82,-150.17 83.74 10/24/2022 21:57:06 71.81,-150.15 83.72 1.84 42
123 10/24/2022 22:47:12 -71.78, 17.55 96.29 10/24/2022 22:46:31 -71.81, 17.49 96.28 3.21 41
124 10/24/2022 23:36:39 71.79,-174.83 83.73 10/24/2022 23:35:56 71.77,-174.92 83.71 3.62 43
125 10/25/2022 00:26:04 -71.80, -7.20 96.25 10/25/2022 00:25:20 -71.82, -7.19 96.23 2.36 44
126 10/25/2022 01:15:31 71.81, 160.42 83.77 10/25/2022 01:14:45 71.79, 160.41 83.75 2.36 46
127 10/25/2022 02:04:56 -71.82, -31.95 96.21 10/25/2022 02:04:09 -71.84, -31.86 96.19 3.60 47
128 10/25/2022 02:54:23 71.83, 135.68 83.82 10/25/2022 02:53:34 71.81, 135.73 83.79 3.20 49
129 10/25/2022 03:43:47 -71.79, -56.60 96.22 10/25/2022 03:42:59 -71.80, -56.63 96.21 1.92 48
130 10/25/2022 04:33:14 71.79, 111.02 83.81 10/25/2022 04:32:23 71.82, 111.05 83.83 3.20 51
131 10/25/2022 05:22:39 -71.81, -81.35 96.18 10/25/2022 05:21:48 -71.82, -81.31 96.17 2.03 51
132 10/25/2022 06:12:05 71.81, 86.27 83.85 10/25/2022 06:11:12 71.78, 86.28 83.81 3.36 53
133 10/25/2022 07:01:29 -71.77,-106.01 96.19 10/25/2022 07:00:37 -71.78,-106.08 96.18 2.62 52
134 10/25/2022 07:50:56 71.78, 61.62 83.84 10/25/2022 07:50:01 71.80, 61.60 83.85 2.34 55
135 10/25/2022 08:40:21 -71.79,-130.76 96.14 10/25/2022 08:39:26 -71.80,-130.76 96.14 0.70 55
136 10/25/2022 09:29:48 71.80, 36.87 83.88 10/25/2022 09:28:50 71.82, 36.92 83.90 2.77 58
137 10/25/2022 10:19:13 -71.81,-155.50 96.10 10/25/2022 10:18:15 -71.81,-155.43 96.10 2.50 58
138 10/25/2022 11:08:39 71.77, 12.21 83.87 10/25/2022 11:07:40 71.78, 12.16 83.88 2.49 59
139 10/25/2022 11:58:04 -71.78, 179.84 96.11 10/25/2022 11:57:05 -71.78, 179.80 96.12 1.45 59
140 10/25/2022 12:47:31 71.79, -12.54 83.91 10/25/2022 12:46:29 71.80, -12.52 83.92 1.25 62
141 10/25/2022 13:36:56 -71.80, 155.09 96.07 10/25/2022 13:35:54 -71.79, 155.12 96.07 1.05 62
142 10/25/2022 14:26:23 71.81, -37.29 83.96 10/25/2022 14:25:18 71.81, -37.20 83.96 3.03 65
143 10/25/2022 15:15:47 -71.76, 130.43 96.08 10/25/2022 15:14:44 -71.76, 130.35 96.09 3.00 63
144 10/25/2022 16:05:14 71.77, -61.94 83.95 10/25/2022 16:04:08 71.77, -61.97 83.95 1.08 66
145 10/25/2022 16:54:39 -71.78, 105.69 96.03 10/25/2022 16:53:33 -71.77, 105.67 96.05 1.15 66
146 10/25/2022 17:44:06 71.79, -86.69 83.99 10/25/2022 17:42:57 71.79, -86.65 83.99 1.43 69
147 10/25/2022 18:33:31 -71.80, 80.94 95.99 10/25/2022 18:32:22 -71.79, 80.99 96.01 2.44 69
148 10/25/2022 19:22:57 71.76,-111.35 83.98 10/25/2022 19:21:47 71.75,-111.42 83.97 2.55 70
149 10/25/2022 20:12:22 -71.77, 56.28 96.00 10/25/2022 20:11:12 -71.75, 56.23 96.02 2.64 70
150 10/25/2022 21:01:49 71.78,-136.10 84.02 10/25/2022 21:00:36 71.77,-136.10 84.01 0.86 73
151 10/25/2022 21:51:14 -71.79, 31.53 95.96 10/25/2022 21:50:01 -71.77, 31.55 95.98 2.24 73
152 10/25/2022 22:40:39 71.69,-160.66 83.96 10/25/2022 22:39:27 71.68,-160.96 83.94 10.48 72
153 10/25/2022 23:30:04 -71.70, 6.97 96.02 10/25/2022 23:28:52 -71.68, 6.69 96.05 10.09 72
154 10/26/2022 00:19:29 71.60, 174.77 83.90 10/26/2022 00:18:18 71.59, 174.18 83.87 20.81 71
155 10/26/2022 01:08:54 -71.61, -17.60 96.08 10/26/2022 01:07:42 -71.64, -18.08 96.07 17.12 72
156 10/26/2022 01:58:19 71.51, 150.21 83.84 10/26/2022 01:57:08 71.55, 149.42 83.85 28.14 71
157 10/26/2022 02:47:44 -71.53, -42.17 96.14 10/26/2022 02:46:33 -71.55, -42.94 96.14 27.25 71
158 10/26/2022 03:37:09 71.43, 125.64 83.78 10/26/2022 03:35:59 71.46, 124.56 83.78 38.36 70
159 10/26/2022 04:26:34 -71.44, -66.74 96.20 10/26/2022 04:25:24 -71.46, -67.79 96.21 37.47 70
160 10/26/2022 05:15:59 71.34, 101.07 83.72 10/26/2022 05:14:50 71.36, 99.70 83.71 48.64 69
161 10/26/2022 06:05:24 -71.35, -91.31 96.27 10/26/2022 06:04:15 -71.37, -92.65 96.28 47.71 69
162 10/26/2022 06:54:49 71.25, 76.50 83.65 10/26/2022 06:53:41 71.27, 74.85 83.64 58.94 68
163 10/26/2022 07:44:15 -71.32,-115.96 96.27 10/26/2022 07:43:06 -71.27,-117.50 96.35 54.96 69
164 10/26/2022 08:33:39 71.16, 51.93 83.59 10/26/2022 08:32:32 71.18, 50.00 83.57 69.26 67
165 10/26/2022 09:23:05 -71.23,-140.54 96.34 10/26/2022 09:21:57 -71.18,-142.35 96.42 65.24 68
166 10/26/2022 10:12:29 71.07, 27.35 83.53 10/26/2022 10:11:23 71.08, 25.15 83.50 79.58 66
167 10/26/2022 11:01:55 -71.14,-165.11 96.40 10/26/2022 11:00:47 -71.14,-167.12 96.44 72.14 68
168 10/26/2022 11:51:19 70.99, 2.78 83.47 10/26/2022 11:50:14 70.99, 0.29 83.43 89.91 65
169 10/26/2022 12:40:45 -71.05, 170.32 96.46 10/26/2022 12:39:38 -71.05, 168.03 96.51 82.41 67
170 10/26/2022 14:19:35 -70.97, 145.74 96.52 10/26/2022 14:18:29 -70.96, 143.18 96.58 92.69 66



Historial Predications of SNOs between AQUA and TERRA
